Погода в Семеновке

Россия / Тамбовская область     52°11′18″N   41°05′44″E
темп.,
°C
ветер,
м/с
пор.,
м/с
влажн.,
%
обл.,
%
осадки,
мм/ч
давл.,
гПа
погр.,
м
14 мая, пт
пт1400:00+13вюв3576100 0.0 101670
03:00+13юв3380100 0.0 101739
06:00+14юв358848 0.0 1017124
09:00+20юв577296 0.0 1016566
12:00+24юв785867 0.0 10161337
15:00+25ююв6953100 0.0 10151720
18:00+23юв2470100 0.1 1014135
21:00+19в488293 0.1 1013113
15 мая, сб
сб1500:00+17юв4108796 0.0 1012164
03:00+15ююв4108953 0.0 1012167
06:00+16ююв498730 0.0 1012219
09:00+19ю51081100 0.0 1013457
12:00+22ююз687255 0.3 10131020
15:00+23ю577099 4.4 10131114
18:00+22ю46765 2.3 1013332
21:00+18зюз23856 2.5 101421
16 мая, вс
вс1600:00+15зсз22835 0.1 101411
03:00+15св0179100 0.1 101511
06:00+16в2381100 0.0 101548
09:00+21в336584 0.1 1015440
12:00+23всв2260100 0.1 1015738
15:00+24всв2362100 0.6 10141153
18:00+23юв3566100 0.0 1013176
21:00+18вюв3368100 0.0 101438
17 мая, пн
пн1700:00+16в467599 0.0 101470
03:00+16в497679 0.0 1013138
06:00+17вюв36765 0.0 1012108
09:00+22юв595252 0.0 1013412
12:00+25юв69475 0.0 1013796
15:00+27юв69495 0.0 10121150
18:00+24юв612625 0.0 1011480
21:00+19вюв515725 0.0 1011287
18 мая, вт
вт1800:00+18юв617580 0.0 1011356
03:00+16юв5135436 0.0 1011230
06:00+15юв5136829 0.0 1011213
09:00+22ююв614559 0.0 1011561
12:00+24ююв71151100 0.0 1011917
15:00+24ю5955100 0.0 10111145
18:00+22ю4865100 0.1 1011355
21:00+17ююз4987100 3.4 1012189